<?xml version="1.0"?>
<gpx xmlns="http://www.topografix.com/GPX/1/1" xmlns:xsi="http://www.w3.org/2001/XMLSchema-instance" version="1.1" creator="GPX RubyGem 1.0.0 -- http://dougfales.github.io/gpx/" xsi:schemaLocation="http://www.topografix.com/GPX/1/1 http://www.topografix.com/GPX/1/1/gpx.xsd">
  <metadata>
    <name/>
    <time>2026-05-09T05:28:50+00:00</time>
    <bound minlat="90.0" minlon="180.0" maxlat="-90.0" maxlon="-180.0"/>
  </metadata>
  <trk>
    <name/>
    <trkseg>
      <trkpt lat="41.246908" lon="1.057066">
        <time>1970-01-01T00:00:00+00:00</time>
        <ele>940.0</ele>
      </trkpt>
      <trkpt lat="41.246924" lon="1.057065">
        <time>1970-01-01T00:00:00+00:00</time>
        <ele>941.0</ele>
      </trkpt>
      <trkpt lat="41.24697" lon="1.057097">
        <time>1970-01-01T00:00:00+00:00</time>
        <ele>943.0</ele>
      </trkpt>
      <trkpt lat="41.247031" lon="1.057215">
        <time>1970-01-01T00:00:00+00:00</time>
        <ele>947.0</ele>
      </trkpt>
      <trkpt lat="41.247031" lon="1.057298">
        <time>1970-01-01T00:00:00+00:00</time>
        <ele>948.0</ele>
      </trkpt>
      <trkpt lat="41.246994" lon="1.057443">
        <time>1970-01-01T00:00:00+00:00</time>
        <ele>948.0</ele>
      </trkpt>
      <trkpt lat="41.246924" lon="1.057539">
        <time>1970-01-01T00:00:00+00:00</time>
        <ele>947.0</ele>
      </trkpt>
      <trkpt lat="41.246654" lon="1.057663">
        <time>1970-01-01T00:00:00+00:00</time>
        <ele>940.0</ele>
      </trkpt>
      <trkpt lat="41.246569" lon="1.057735">
        <time>1970-01-01T00:00:00+00:00</time>
        <ele>937.0</ele>
      </trkpt>
      <trkpt lat="41.246393" lon="1.057965">
        <time>1970-01-01T00:00:00+00:00</time>
        <ele>929.0</ele>
      </trkpt>
      <trkpt lat="41.246342" lon="1.058116">
        <time>1970-01-01T00:00:00+00:00</time>
        <ele>926.0</ele>
      </trkpt>
      <trkpt lat="41.246344" lon="1.058229">
        <time>1970-01-01T00:00:00+00:00</time>
        <ele>923.0</ele>
      </trkpt>
      <trkpt lat="41.246369" lon="1.058326">
        <time>1970-01-01T00:00:00+00:00</time>
        <ele>922.0</ele>
      </trkpt>
      <trkpt lat="41.246427" lon="1.058408">
        <time>1970-01-01T00:00:00+00:00</time>
        <ele>923.0</ele>
      </trkpt>
      <trkpt lat="41.24648" lon="1.058455">
        <time>1970-01-01T00:00:00+00:00</time>
        <ele>924.0</ele>
      </trkpt>
      <trkpt lat="41.246671" lon="1.058546">
        <time>1970-01-01T00:00:00+00:00</time>
        <ele>929.0</ele>
      </trkpt>
      <trkpt lat="41.246787" lon="1.058634">
        <time>1970-01-01T00:00:00+00:00</time>
        <ele>930.0</ele>
      </trkpt>
      <trkpt lat="41.246897" lon="1.058752">
        <time>1970-01-01T00:00:00+00:00</time>
        <ele>933.0</ele>
      </trkpt>
      <trkpt lat="41.247004" lon="1.058912">
        <time>1970-01-01T00:00:00+00:00</time>
        <ele>937.0</ele>
      </trkpt>
      <trkpt lat="41.247098" lon="1.059091">
        <time>1970-01-01T00:00:00+00:00</time>
        <ele>941.0</ele>
      </trkpt>
      <trkpt lat="41.247205" lon="1.05939">
        <time>1970-01-01T00:00:00+00:00</time>
        <ele>947.0</ele>
      </trkpt>
      <trkpt lat="41.247276" lon="1.059506">
        <time>1970-01-01T00:00:00+00:00</time>
        <ele>952.0</ele>
      </trkpt>
      <trkpt lat="41.247298" lon="1.059656">
        <time>1970-01-01T00:00:00+00:00</time>
        <ele>955.0</ele>
      </trkpt>
      <trkpt lat="41.247308" lon="1.05989">
        <time>1970-01-01T00:00:00+00:00</time>
        <ele>960.0</ele>
      </trkpt>
      <trkpt lat="41.247509" lon="1.060367">
        <time>1970-01-01T00:00:00+00:00</time>
        <ele>962.0</ele>
      </trkpt>
      <trkpt lat="41.247564" lon="1.060443">
        <time>1970-01-01T00:00:00+00:00</time>
        <ele>962.0</ele>
      </trkpt>
      <trkpt lat="41.247618" lon="1.060477">
        <time>1970-01-01T00:00:00+00:00</time>
        <ele>962.0</ele>
      </trkpt>
      <trkpt lat="41.247974" lon="1.060486">
        <time>1970-01-01T00:00:00+00:00</time>
        <ele>965.0</ele>
      </trkpt>
      <trkpt lat="41.248059" lon="1.060456">
        <time>1970-01-01T00:00:00+00:00</time>
        <ele>966.0</ele>
      </trkpt>
      <trkpt lat="41.248243" lon="1.060334">
        <time>1970-01-01T00:00:00+00:00</time>
        <ele>970.0</ele>
      </trkpt>
      <trkpt lat="41.24851" lon="1.060242">
        <time>1970-01-01T00:00:00+00:00</time>
        <ele>975.0</ele>
      </trkpt>
      <trkpt lat="41.24866" lon="1.060136">
        <time>1970-01-01T00:00:00+00:00</time>
        <ele>977.0</ele>
      </trkpt>
      <trkpt lat="41.248795" lon="1.060074">
        <time>1970-01-01T00:00:00+00:00</time>
        <ele>979.0</ele>
      </trkpt>
      <trkpt lat="41.249052" lon="1.060042">
        <time>1970-01-01T00:00:00+00:00</time>
        <ele>983.0</ele>
      </trkpt>
      <trkpt lat="41.249122" lon="1.059997">
        <time>1970-01-01T00:00:00+00:00</time>
        <ele>984.0</ele>
      </trkpt>
      <trkpt lat="41.249298" lon="1.059731">
        <time>1970-01-01T00:00:00+00:00</time>
        <ele>984.0</ele>
      </trkpt>
      <trkpt lat="41.24948" lon="1.059559">
        <time>1970-01-01T00:00:00+00:00</time>
        <ele>983.0</ele>
      </trkpt>
      <trkpt lat="41.249538" lon="1.05947">
        <time>1970-01-01T00:00:00+00:00</time>
        <ele>984.0</ele>
      </trkpt>
      <trkpt lat="41.249649" lon="1.059156">
        <time>1970-01-01T00:00:00+00:00</time>
        <ele>985.0</ele>
      </trkpt>
      <trkpt lat="41.249752" lon="1.058989">
        <time>1970-01-01T00:00:00+00:00</time>
        <ele>987.0</ele>
      </trkpt>
      <trkpt lat="41.2498" lon="1.058878">
        <time>1970-01-01T00:00:00+00:00</time>
        <ele>988.0</ele>
      </trkpt>
      <trkpt lat="41.249875" lon="1.058572">
        <time>1970-01-01T00:00:00+00:00</time>
        <ele>988.0</ele>
      </trkpt>
      <trkpt lat="41.249922" lon="1.058474">
        <time>1970-01-01T00:00:00+00:00</time>
        <ele>989.0</ele>
      </trkpt>
      <trkpt lat="41.250156" lon="1.058238">
        <time>1970-01-01T00:00:00+00:00</time>
        <ele>992.0</ele>
      </trkpt>
      <trkpt lat="41.25037" lon="1.057827">
        <time>1970-01-01T00:00:00+00:00</time>
        <ele>992.0</ele>
      </trkpt>
      <trkpt lat="41.250524" lon="1.057578">
        <time>1970-01-01T00:00:00+00:00</time>
        <ele>991.0</ele>
      </trkpt>
      <trkpt lat="41.250675" lon="1.057394">
        <time>1970-01-01T00:00:00+00:00</time>
        <ele>991.0</ele>
      </trkpt>
      <trkpt lat="41.25089" lon="1.05706">
        <time>1970-01-01T00:00:00+00:00</time>
        <ele>988.0</ele>
      </trkpt>
      <trkpt lat="41.251175" lon="1.056733">
        <time>1970-01-01T00:00:00+00:00</time>
        <ele>983.0</ele>
      </trkpt>
      <trkpt lat="41.251487" lon="1.056475">
        <time>1970-01-01T00:00:00+00:00</time>
        <ele>981.0</ele>
      </trkpt>
      <trkpt lat="41.251558" lon="1.056386">
        <time>1970-01-01T00:00:00+00:00</time>
        <ele>980.0</ele>
      </trkpt>
      <trkpt lat="41.251734" lon="1.05607">
        <time>1970-01-01T00:00:00+00:00</time>
        <ele>976.0</ele>
      </trkpt>
      <trkpt lat="41.251789" lon="1.056008">
        <time>1970-01-01T00:00:00+00:00</time>
        <ele>975.0</ele>
      </trkpt>
      <trkpt lat="41.251895" lon="1.055939">
        <time>1970-01-01T00:00:00+00:00</time>
        <ele>974.0</ele>
      </trkpt>
      <trkpt lat="41.251942" lon="1.055937">
        <time>1970-01-01T00:00:00+00:00</time>
        <ele>973.0</ele>
      </trkpt>
      <trkpt lat="41.25217" lon="1.056197">
        <time>1970-01-01T00:00:00+00:00</time>
        <ele>971.0</ele>
      </trkpt>
      <trkpt lat="41.252231" lon="1.056247">
        <time>1970-01-01T00:00:00+00:00</time>
        <ele>969.0</ele>
      </trkpt>
      <trkpt lat="41.25234" lon="1.056295">
        <time>1970-01-01T00:00:00+00:00</time>
        <ele>967.0</ele>
      </trkpt>
      <trkpt lat="41.252543" lon="1.056316">
        <time>1970-01-01T00:00:00+00:00</time>
        <ele>965.0</ele>
      </trkpt>
      <trkpt lat="41.252813" lon="1.056253">
        <time>1970-01-01T00:00:00+00:00</time>
        <ele>961.0</ele>
      </trkpt>
      <trkpt lat="41.252893" lon="1.056282">
        <time>1970-01-01T00:00:00+00:00</time>
        <ele>960.0</ele>
      </trkpt>
      <trkpt lat="41.252994" lon="1.056357">
        <time>1970-01-01T00:00:00+00:00</time>
        <ele>958.0</ele>
      </trkpt>
      <trkpt lat="41.25312" lon="1.056345">
        <time>1970-01-01T00:00:00+00:00</time>
        <ele>957.0</ele>
      </trkpt>
      <trkpt lat="41.253258" lon="1.056276">
        <time>1970-01-01T00:00:00+00:00</time>
        <ele>957.0</ele>
      </trkpt>
      <trkpt lat="41.253566" lon="1.056166">
        <time>1970-01-01T00:00:00+00:00</time>
        <ele>958.0</ele>
      </trkpt>
      <trkpt lat="41.25401" lon="1.056065">
        <time>1970-01-01T00:00:00+00:00</time>
        <ele>962.0</ele>
      </trkpt>
      <trkpt lat="41.254956" lon="1.055955">
        <time>1970-01-01T00:00:00+00:00</time>
        <ele>959.0</ele>
      </trkpt>
      <trkpt lat="41.25507" lon="1.055909">
        <time>1970-01-01T00:00:00+00:00</time>
        <ele>958.0</ele>
      </trkpt>
      <trkpt lat="41.255186" lon="1.056037">
        <time>1970-01-01T00:00:00+00:00</time>
        <ele>957.0</ele>
      </trkpt>
      <trkpt lat="41.255261" lon="1.05607">
        <time>1970-01-01T00:00:00+00:00</time>
        <ele>957.0</ele>
      </trkpt>
      <trkpt lat="41.25538" lon="1.056077">
        <time>1970-01-01T00:00:00+00:00</time>
        <ele>957.0</ele>
      </trkpt>
      <trkpt lat="41.255484" lon="1.056059">
        <time>1970-01-01T00:00:00+00:00</time>
        <ele>958.0</ele>
      </trkpt>
      <trkpt lat="41.255753" lon="1.055947">
        <time>1970-01-01T00:00:00+00:00</time>
        <ele>960.0</ele>
      </trkpt>
      <trkpt lat="41.255915" lon="1.056128">
        <time>1970-01-01T00:00:00+00:00</time>
        <ele>962.0</ele>
      </trkpt>
      <trkpt lat="41.255948" lon="1.05615">
        <time>1970-01-01T00:00:00+00:00</time>
        <ele>962.0</ele>
      </trkpt>
      <trkpt lat="41.256014" lon="1.056149">
        <time>1970-01-01T00:00:00+00:00</time>
        <ele>963.0</ele>
      </trkpt>
      <trkpt lat="41.256125" lon="1.056219">
        <time>1970-01-01T00:00:00+00:00</time>
        <ele>965.0</ele>
      </trkpt>
      <trkpt lat="41.256188" lon="1.056334">
        <time>1970-01-01T00:00:00+00:00</time>
        <ele>966.0</ele>
      </trkpt>
      <trkpt lat="41.256303" lon="1.056434">
        <time>1970-01-01T00:00:00+00:00</time>
        <ele>968.0</ele>
      </trkpt>
      <trkpt lat="41.256326" lon="1.056493">
        <time>1970-01-01T00:00:00+00:00</time>
        <ele>968.0</ele>
      </trkpt>
      <trkpt lat="41.256367" lon="1.05654">
        <time>1970-01-01T00:00:00+00:00</time>
        <ele>968.0</ele>
      </trkpt>
      <trkpt lat="41.256423" lon="1.05654">
        <time>1970-01-01T00:00:00+00:00</time>
        <ele>969.0</ele>
      </trkpt>
      <trkpt lat="41.256564" lon="1.056494">
        <time>1970-01-01T00:00:00+00:00</time>
        <ele>973.0</ele>
      </trkpt>
      <trkpt lat="41.256621" lon="1.056568">
        <time>1970-01-01T00:00:00+00:00</time>
        <ele>974.0</ele>
      </trkpt>
      <trkpt lat="41.256637" lon="1.056557">
        <time>1970-01-01T00:00:00+00:00</time>
        <ele>974.0</ele>
      </trkpt>
      <trkpt lat="41.256803" lon="1.056582">
        <time>1970-01-01T00:00:00+00:00</time>
        <ele>978.0</ele>
      </trkpt>
      <trkpt lat="41.256889" lon="1.056615">
        <time>1970-01-01T00:00:00+00:00</time>
        <ele>981.0</ele>
      </trkpt>
      <trkpt lat="41.256927" lon="1.056533">
        <time>1970-01-01T00:00:00+00:00</time>
        <ele>984.0</ele>
      </trkpt>
      <trkpt lat="41.256948" lon="1.056402">
        <time>1970-01-01T00:00:00+00:00</time>
        <ele>987.0</ele>
      </trkpt>
      <trkpt lat="41.256977" lon="1.056352">
        <time>1970-01-01T00:00:00+00:00</time>
        <ele>988.0</ele>
      </trkpt>
      <trkpt lat="41.257069" lon="1.056268">
        <time>1970-01-01T00:00:00+00:00</time>
        <ele>993.0</ele>
      </trkpt>
      <trkpt lat="41.257149" lon="1.05624">
        <time>1970-01-01T00:00:00+00:00</time>
        <ele>997.0</ele>
      </trkpt>
      <trkpt lat="41.257276" lon="1.05627">
        <time>1970-01-01T00:00:00+00:00</time>
        <ele>1000.0</ele>
      </trkpt>
      <trkpt lat="41.257333" lon="1.056362">
        <time>1970-01-01T00:00:00+00:00</time>
        <ele>1000.0</ele>
      </trkpt>
      <trkpt lat="41.257438" lon="1.056431">
        <time>1970-01-01T00:00:00+00:00</time>
        <ele>1002.0</ele>
      </trkpt>
      <trkpt lat="41.257655" lon="1.056473">
        <time>1970-01-01T00:00:00+00:00</time>
        <ele>1008.0</ele>
      </trkpt>
      <trkpt lat="41.257755" lon="1.056535">
        <time>1970-01-01T00:00:00+00:00</time>
        <ele>1009.0</ele>
      </trkpt>
      <trkpt lat="41.257835" lon="1.056624">
        <time>1970-01-01T00:00:00+00:00</time>
        <ele>1009.0</ele>
      </trkpt>
      <trkpt lat="41.257992" lon="1.056646">
        <time>1970-01-01T00:00:00+00:00</time>
        <ele>1012.0</ele>
      </trkpt>
      <trkpt lat="41.258048" lon="1.056633">
        <time>1970-01-01T00:00:00+00:00</time>
        <ele>1014.0</ele>
      </trkpt>
      <trkpt lat="41.258078" lon="1.056663">
        <time>1970-01-01T00:00:00+00:00</time>
        <ele>1014.0</ele>
      </trkpt>
      <trkpt lat="41.258148" lon="1.056571">
        <time>1970-01-01T00:00:00+00:00</time>
        <ele>1019.0</ele>
      </trkpt>
      <trkpt lat="41.258023" lon="1.056345">
        <time>1970-01-01T00:00:00+00:00</time>
        <ele>1018.0</ele>
      </trkpt>
      <trkpt lat="41.258017" lon="1.056279">
        <time>1970-01-01T00:00:00+00:00</time>
        <ele>1019.0</ele>
      </trkpt>
      <trkpt lat="41.258056" lon="1.056217">
        <time>1970-01-01T00:00:00+00:00</time>
        <ele>1021.0</ele>
      </trkpt>
      <trkpt lat="41.258091" lon="1.056192">
        <time>1970-01-01T00:00:00+00:00</time>
        <ele>1023.0</ele>
      </trkpt>
      <trkpt lat="41.258212" lon="1.056166">
        <time>1970-01-01T00:00:00+00:00</time>
        <ele>1029.0</ele>
      </trkpt>
      <trkpt lat="41.258235" lon="1.056127">
        <time>1970-01-01T00:00:00+00:00</time>
        <ele>1031.0</ele>
      </trkpt>
      <trkpt lat="41.258104" lon="1.055879">
        <time>1970-01-01T00:00:00+00:00</time>
        <ele>1032.0</ele>
      </trkpt>
      <trkpt lat="41.257972" lon="1.055816">
        <time>1970-01-01T00:00:00+00:00</time>
        <ele>1030.0</ele>
      </trkpt>
      <trkpt lat="41.257942" lon="1.055611">
        <time>1970-01-01T00:00:00+00:00</time>
        <ele>1035.0</ele>
      </trkpt>
      <trkpt lat="41.257942" lon="1.055486">
        <time>1970-01-01T00:00:00+00:00</time>
        <ele>1039.0</ele>
      </trkpt>
      <trkpt lat="41.257942" lon="1.055486">
        <time>1970-01-01T00:00:00+00:00</time>
        <ele>1039.0</ele>
      </trkpt>
      <trkpt lat="41.257942" lon="1.055611">
        <time>1970-01-01T00:00:00+00:00</time>
        <ele>1035.0</ele>
      </trkpt>
      <trkpt lat="41.257972" lon="1.055816">
        <time>1970-01-01T00:00:00+00:00</time>
        <ele>1030.0</ele>
      </trkpt>
      <trkpt lat="41.258104" lon="1.055879">
        <time>1970-01-01T00:00:00+00:00</time>
        <ele>1032.0</ele>
      </trkpt>
      <trkpt lat="41.258235" lon="1.056127">
        <time>1970-01-01T00:00:00+00:00</time>
        <ele>1031.0</ele>
      </trkpt>
      <trkpt lat="41.258212" lon="1.056166">
        <time>1970-01-01T00:00:00+00:00</time>
        <ele>1029.0</ele>
      </trkpt>
      <trkpt lat="41.258091" lon="1.056192">
        <time>1970-01-01T00:00:00+00:00</time>
        <ele>1023.0</ele>
      </trkpt>
      <trkpt lat="41.258056" lon="1.056217">
        <time>1970-01-01T00:00:00+00:00</time>
        <ele>1021.0</ele>
      </trkpt>
      <trkpt lat="41.258017" lon="1.056279">
        <time>1970-01-01T00:00:00+00:00</time>
        <ele>1019.0</ele>
      </trkpt>
      <trkpt lat="41.258023" lon="1.056345">
        <time>1970-01-01T00:00:00+00:00</time>
        <ele>1018.0</ele>
      </trkpt>
      <trkpt lat="41.258148" lon="1.056571">
        <time>1970-01-01T00:00:00+00:00</time>
        <ele>1019.0</ele>
      </trkpt>
      <trkpt lat="41.258078" lon="1.056663">
        <time>1970-01-01T00:00:00+00:00</time>
        <ele>1014.0</ele>
      </trkpt>
      <trkpt lat="41.258048" lon="1.056633">
        <time>1970-01-01T00:00:00+00:00</time>
        <ele>1014.0</ele>
      </trkpt>
      <trkpt lat="41.257992" lon="1.056646">
        <time>1970-01-01T00:00:00+00:00</time>
        <ele>1012.0</ele>
      </trkpt>
      <trkpt lat="41.257835" lon="1.056624">
        <time>1970-01-01T00:00:00+00:00</time>
        <ele>1009.0</ele>
      </trkpt>
      <trkpt lat="41.257755" lon="1.056535">
        <time>1970-01-01T00:00:00+00:00</time>
        <ele>1009.0</ele>
      </trkpt>
      <trkpt lat="41.257655" lon="1.056473">
        <time>1970-01-01T00:00:00+00:00</time>
        <ele>1008.0</ele>
      </trkpt>
      <trkpt lat="41.257438" lon="1.056431">
        <time>1970-01-01T00:00:00+00:00</time>
        <ele>1002.0</ele>
      </trkpt>
      <trkpt lat="41.257333" lon="1.056362">
        <time>1970-01-01T00:00:00+00:00</time>
        <ele>1000.0</ele>
      </trkpt>
      <trkpt lat="41.257276" lon="1.05627">
        <time>1970-01-01T00:00:00+00:00</time>
        <ele>1000.0</ele>
      </trkpt>
      <trkpt lat="41.257149" lon="1.05624">
        <time>1970-01-01T00:00:00+00:00</time>
        <ele>997.0</ele>
      </trkpt>
      <trkpt lat="41.257069" lon="1.056268">
        <time>1970-01-01T00:00:00+00:00</time>
        <ele>993.0</ele>
      </trkpt>
      <trkpt lat="41.256977" lon="1.056352">
        <time>1970-01-01T00:00:00+00:00</time>
        <ele>988.0</ele>
      </trkpt>
      <trkpt lat="41.256948" lon="1.056402">
        <time>1970-01-01T00:00:00+00:00</time>
        <ele>987.0</ele>
      </trkpt>
      <trkpt lat="41.256927" lon="1.056533">
        <time>1970-01-01T00:00:00+00:00</time>
        <ele>984.0</ele>
      </trkpt>
      <trkpt lat="41.256889" lon="1.056615">
        <time>1970-01-01T00:00:00+00:00</time>
        <ele>981.0</ele>
      </trkpt>
      <trkpt lat="41.256803" lon="1.056582">
        <time>1970-01-01T00:00:00+00:00</time>
        <ele>978.0</ele>
      </trkpt>
      <trkpt lat="41.256637" lon="1.056557">
        <time>1970-01-01T00:00:00+00:00</time>
        <ele>974.0</ele>
      </trkpt>
      <trkpt lat="41.256621" lon="1.056568">
        <time>1970-01-01T00:00:00+00:00</time>
        <ele>974.0</ele>
      </trkpt>
      <trkpt lat="41.256564" lon="1.056494">
        <time>1970-01-01T00:00:00+00:00</time>
        <ele>973.0</ele>
      </trkpt>
      <trkpt lat="41.256423" lon="1.05654">
        <time>1970-01-01T00:00:00+00:00</time>
        <ele>969.0</ele>
      </trkpt>
      <trkpt lat="41.256367" lon="1.05654">
        <time>1970-01-01T00:00:00+00:00</time>
        <ele>968.0</ele>
      </trkpt>
      <trkpt lat="41.256326" lon="1.056493">
        <time>1970-01-01T00:00:00+00:00</time>
        <ele>968.0</ele>
      </trkpt>
      <trkpt lat="41.256303" lon="1.056434">
        <time>1970-01-01T00:00:00+00:00</time>
        <ele>968.0</ele>
      </trkpt>
      <trkpt lat="41.256188" lon="1.056334">
        <time>1970-01-01T00:00:00+00:00</time>
        <ele>966.0</ele>
      </trkpt>
      <trkpt lat="41.256125" lon="1.056219">
        <time>1970-01-01T00:00:00+00:00</time>
        <ele>965.0</ele>
      </trkpt>
      <trkpt lat="41.256014" lon="1.056149">
        <time>1970-01-01T00:00:00+00:00</time>
        <ele>963.0</ele>
      </trkpt>
      <trkpt lat="41.255948" lon="1.05615">
        <time>1970-01-01T00:00:00+00:00</time>
        <ele>962.0</ele>
      </trkpt>
      <trkpt lat="41.255915" lon="1.056128">
        <time>1970-01-01T00:00:00+00:00</time>
        <ele>962.0</ele>
      </trkpt>
      <trkpt lat="41.255753" lon="1.055947">
        <time>1970-01-01T00:00:00+00:00</time>
        <ele>960.0</ele>
      </trkpt>
      <trkpt lat="41.255484" lon="1.056059">
        <time>1970-01-01T00:00:00+00:00</time>
        <ele>958.0</ele>
      </trkpt>
      <trkpt lat="41.25538" lon="1.056077">
        <time>1970-01-01T00:00:00+00:00</time>
        <ele>957.0</ele>
      </trkpt>
      <trkpt lat="41.255261" lon="1.05607">
        <time>1970-01-01T00:00:00+00:00</time>
        <ele>957.0</ele>
      </trkpt>
      <trkpt lat="41.255186" lon="1.056037">
        <time>1970-01-01T00:00:00+00:00</time>
        <ele>957.0</ele>
      </trkpt>
      <trkpt lat="41.25507" lon="1.055909">
        <time>1970-01-01T00:00:00+00:00</time>
        <ele>958.0</ele>
      </trkpt>
      <trkpt lat="41.254956" lon="1.055955">
        <time>1970-01-01T00:00:00+00:00</time>
        <ele>959.0</ele>
      </trkpt>
      <trkpt lat="41.25401" lon="1.056065">
        <time>1970-01-01T00:00:00+00:00</time>
        <ele>962.0</ele>
      </trkpt>
      <trkpt lat="41.253566" lon="1.056166">
        <time>1970-01-01T00:00:00+00:00</time>
        <ele>958.0</ele>
      </trkpt>
      <trkpt lat="41.253258" lon="1.056276">
        <time>1970-01-01T00:00:00+00:00</time>
        <ele>957.0</ele>
      </trkpt>
      <trkpt lat="41.25312" lon="1.056345">
        <time>1970-01-01T00:00:00+00:00</time>
        <ele>957.0</ele>
      </trkpt>
      <trkpt lat="41.252994" lon="1.056357">
        <time>1970-01-01T00:00:00+00:00</time>
        <ele>958.0</ele>
      </trkpt>
      <trkpt lat="41.252893" lon="1.056282">
        <time>1970-01-01T00:00:00+00:00</time>
        <ele>960.0</ele>
      </trkpt>
      <trkpt lat="41.252813" lon="1.056253">
        <time>1970-01-01T00:00:00+00:00</time>
        <ele>961.0</ele>
      </trkpt>
      <trkpt lat="41.252543" lon="1.056316">
        <time>1970-01-01T00:00:00+00:00</time>
        <ele>965.0</ele>
      </trkpt>
      <trkpt lat="41.25234" lon="1.056295">
        <time>1970-01-01T00:00:00+00:00</time>
        <ele>967.0</ele>
      </trkpt>
      <trkpt lat="41.252231" lon="1.056247">
        <time>1970-01-01T00:00:00+00:00</time>
        <ele>969.0</ele>
      </trkpt>
      <trkpt lat="41.25217" lon="1.056197">
        <time>1970-01-01T00:00:00+00:00</time>
        <ele>971.0</ele>
      </trkpt>
      <trkpt lat="41.251942" lon="1.055937">
        <time>1970-01-01T00:00:00+00:00</time>
        <ele>973.0</ele>
      </trkpt>
      <trkpt lat="41.251895" lon="1.055939">
        <time>1970-01-01T00:00:00+00:00</time>
        <ele>974.0</ele>
      </trkpt>
      <trkpt lat="41.251789" lon="1.056008">
        <time>1970-01-01T00:00:00+00:00</time>
        <ele>975.0</ele>
      </trkpt>
      <trkpt lat="41.251734" lon="1.05607">
        <time>1970-01-01T00:00:00+00:00</time>
        <ele>976.0</ele>
      </trkpt>
      <trkpt lat="41.251558" lon="1.056386">
        <time>1970-01-01T00:00:00+00:00</time>
        <ele>980.0</ele>
      </trkpt>
      <trkpt lat="41.251487" lon="1.056475">
        <time>1970-01-01T00:00:00+00:00</time>
        <ele>981.0</ele>
      </trkpt>
      <trkpt lat="41.251175" lon="1.056733">
        <time>1970-01-01T00:00:00+00:00</time>
        <ele>983.0</ele>
      </trkpt>
      <trkpt lat="41.25089" lon="1.05706">
        <time>1970-01-01T00:00:00+00:00</time>
        <ele>988.0</ele>
      </trkpt>
      <trkpt lat="41.250675" lon="1.057394">
        <time>1970-01-01T00:00:00+00:00</time>
        <ele>991.0</ele>
      </trkpt>
      <trkpt lat="41.250524" lon="1.057578">
        <time>1970-01-01T00:00:00+00:00</time>
        <ele>991.0</ele>
      </trkpt>
      <trkpt lat="41.25037" lon="1.057827">
        <time>1970-01-01T00:00:00+00:00</time>
        <ele>992.0</ele>
      </trkpt>
      <trkpt lat="41.250156" lon="1.058238">
        <time>1970-01-01T00:00:00+00:00</time>
        <ele>992.0</ele>
      </trkpt>
      <trkpt lat="41.249922" lon="1.058474">
        <time>1970-01-01T00:00:00+00:00</time>
        <ele>989.0</ele>
      </trkpt>
      <trkpt lat="41.249875" lon="1.058572">
        <time>1970-01-01T00:00:00+00:00</time>
        <ele>988.0</ele>
      </trkpt>
      <trkpt lat="41.2498" lon="1.058878">
        <time>1970-01-01T00:00:00+00:00</time>
        <ele>988.0</ele>
      </trkpt>
      <trkpt lat="41.249752" lon="1.058989">
        <time>1970-01-01T00:00:00+00:00</time>
        <ele>987.0</ele>
      </trkpt>
      <trkpt lat="41.249649" lon="1.059156">
        <time>1970-01-01T00:00:00+00:00</time>
        <ele>985.0</ele>
      </trkpt>
      <trkpt lat="41.249538" lon="1.05947">
        <time>1970-01-01T00:00:00+00:00</time>
        <ele>984.0</ele>
      </trkpt>
      <trkpt lat="41.24948" lon="1.059559">
        <time>1970-01-01T00:00:00+00:00</time>
        <ele>983.0</ele>
      </trkpt>
      <trkpt lat="41.249298" lon="1.059731">
        <time>1970-01-01T00:00:00+00:00</time>
        <ele>984.0</ele>
      </trkpt>
      <trkpt lat="41.249122" lon="1.059997">
        <time>1970-01-01T00:00:00+00:00</time>
        <ele>984.0</ele>
      </trkpt>
      <trkpt lat="41.249052" lon="1.060042">
        <time>1970-01-01T00:00:00+00:00</time>
        <ele>983.0</ele>
      </trkpt>
      <trkpt lat="41.248795" lon="1.060074">
        <time>1970-01-01T00:00:00+00:00</time>
        <ele>979.0</ele>
      </trkpt>
      <trkpt lat="41.24866" lon="1.060136">
        <time>1970-01-01T00:00:00+00:00</time>
        <ele>977.0</ele>
      </trkpt>
      <trkpt lat="41.24851" lon="1.060242">
        <time>1970-01-01T00:00:00+00:00</time>
        <ele>975.0</ele>
      </trkpt>
      <trkpt lat="41.248243" lon="1.060334">
        <time>1970-01-01T00:00:00+00:00</time>
        <ele>970.0</ele>
      </trkpt>
      <trkpt lat="41.248059" lon="1.060456">
        <time>1970-01-01T00:00:00+00:00</time>
        <ele>966.0</ele>
      </trkpt>
      <trkpt lat="41.247974" lon="1.060486">
        <time>1970-01-01T00:00:00+00:00</time>
        <ele>965.0</ele>
      </trkpt>
      <trkpt lat="41.247618" lon="1.060477">
        <time>1970-01-01T00:00:00+00:00</time>
        <ele>962.0</ele>
      </trkpt>
      <trkpt lat="41.247564" lon="1.060443">
        <time>1970-01-01T00:00:00+00:00</time>
        <ele>962.0</ele>
      </trkpt>
      <trkpt lat="41.247509" lon="1.060367">
        <time>1970-01-01T00:00:00+00:00</time>
        <ele>962.0</ele>
      </trkpt>
      <trkpt lat="41.247308" lon="1.05989">
        <time>1970-01-01T00:00:00+00:00</time>
        <ele>960.0</ele>
      </trkpt>
      <trkpt lat="41.247298" lon="1.059656">
        <time>1970-01-01T00:00:00+00:00</time>
        <ele>955.0</ele>
      </trkpt>
      <trkpt lat="41.247276" lon="1.059506">
        <time>1970-01-01T00:00:00+00:00</time>
        <ele>952.0</ele>
      </trkpt>
      <trkpt lat="41.247205" lon="1.05939">
        <time>1970-01-01T00:00:00+00:00</time>
        <ele>947.0</ele>
      </trkpt>
      <trkpt lat="41.247098" lon="1.059091">
        <time>1970-01-01T00:00:00+00:00</time>
        <ele>941.0</ele>
      </trkpt>
      <trkpt lat="41.247004" lon="1.058912">
        <time>1970-01-01T00:00:00+00:00</time>
        <ele>937.0</ele>
      </trkpt>
      <trkpt lat="41.246897" lon="1.058752">
        <time>1970-01-01T00:00:00+00:00</time>
        <ele>933.0</ele>
      </trkpt>
      <trkpt lat="41.246787" lon="1.058634">
        <time>1970-01-01T00:00:00+00:00</time>
        <ele>930.0</ele>
      </trkpt>
      <trkpt lat="41.246671" lon="1.058546">
        <time>1970-01-01T00:00:00+00:00</time>
        <ele>929.0</ele>
      </trkpt>
      <trkpt lat="41.24648" lon="1.058455">
        <time>1970-01-01T00:00:00+00:00</time>
        <ele>924.0</ele>
      </trkpt>
      <trkpt lat="41.246427" lon="1.058408">
        <time>1970-01-01T00:00:00+00:00</time>
        <ele>923.0</ele>
      </trkpt>
      <trkpt lat="41.246369" lon="1.058326">
        <time>1970-01-01T00:00:00+00:00</time>
        <ele>922.0</ele>
      </trkpt>
      <trkpt lat="41.246344" lon="1.058229">
        <time>1970-01-01T00:00:00+00:00</time>
        <ele>923.0</ele>
      </trkpt>
      <trkpt lat="41.246342" lon="1.058116">
        <time>1970-01-01T00:00:00+00:00</time>
        <ele>926.0</ele>
      </trkpt>
      <trkpt lat="41.246393" lon="1.057965">
        <time>1970-01-01T00:00:00+00:00</time>
        <ele>929.0</ele>
      </trkpt>
      <trkpt lat="41.246569" lon="1.057735">
        <time>1970-01-01T00:00:00+00:00</time>
        <ele>937.0</ele>
      </trkpt>
      <trkpt lat="41.246654" lon="1.057663">
        <time>1970-01-01T00:00:00+00:00</time>
        <ele>940.0</ele>
      </trkpt>
      <trkpt lat="41.246924" lon="1.057539">
        <time>1970-01-01T00:00:00+00:00</time>
        <ele>947.0</ele>
      </trkpt>
      <trkpt lat="41.246994" lon="1.057443">
        <time>1970-01-01T00:00:00+00:00</time>
        <ele>948.0</ele>
      </trkpt>
      <trkpt lat="41.247031" lon="1.057298">
        <time>1970-01-01T00:00:00+00:00</time>
        <ele>948.0</ele>
      </trkpt>
      <trkpt lat="41.247031" lon="1.057215">
        <time>1970-01-01T00:00:00+00:00</time>
        <ele>947.0</ele>
      </trkpt>
      <trkpt lat="41.24697" lon="1.057097">
        <time>1970-01-01T00:00:00+00:00</time>
        <ele>943.0</ele>
      </trkpt>
      <trkpt lat="41.246924" lon="1.057065">
        <time>1970-01-01T00:00:00+00:00</time>
        <ele>941.0</ele>
      </trkpt>
      <trkpt lat="41.246908" lon="1.057066">
        <time>1970-01-01T00:00:00+00:00</time>
        <ele>940.0</ele>
      </trkpt>
    </trkseg>
  </trk>
</gpx>
